Weather History for Lewisburg, WV

Change the Weather History Date:

Tuesday, April 22, 2014

  Actual Average Record
Temperature  
Mean Temperature 58 °F 52 °F  
Max Temperature 67 °F 65 °F 85 °F (1985)
Min Temperature 49 °F 39 °F 28 °F (1986)
Degree Days  
Heating Degree Days 7    
Month to date heating degree days 306  
Cooling Degree Days 0    
Month to date cooling degree days 0  
Year to date cooling degree days 0  
Growing Degree Days 8 (Base 50)    
Moisture  
Dew Point 40 °F    
Average Humidity 50    
Maximum Humidity 66    
Minimum Humidity 34    
Precipitation  
Precipitation 0.00 in 0.12 in 1.35 in (1972)
Month to date precipitation 1.40 2.41  
Year to date precipitation 6.08 11.89  
Snow  
Snow 0.00 in - - ()
Month to date snowfall T  
Snow Depth 0.00 in    
Sea Level Pressure  
Sea Level Pressure 29.80 in    
Wind  
Wind Speed 6 mph (West)    
Max Wind Speed 14 mph    
Max Gust Speed 24 mph    
Visibility 10 miles    
Events      
T = Trace of Precipitation, MM = Missing Value Source: NWS Daily Summary

Daily Weather History Graph

Daily Weather History Graph

Search for Another Location

Airport:

Trip Planner

Search our weather history database for the weather conditions in past years. The results will help you decide how hot, cold, wet, or windy it might be!

Date:

Astronomy

Apr. 22, 2014 Rise Set
Actual Time 6:36 AM EDT 8:03 PM EDT
Civil Twilight 6:09 AM EDT 8:31 PM EDT
Nautical Twilight 5:36 AM EDT 9:04 PM EDT
Astronomical Twilight 5:01 AM EDT 9:39 PM EDT
Moon 2:17 AM EDT (4/22) 1:10 PM EDT (4/22)
Length of Visible Light 14h 22m
Length of Day
13h 27m
Last Quarter, 46% of the Moon is Illuminated
Apr 22
Last Quarter
Apr 29
New
May 6
First Quarter
May 14
Full
May 21
Last Quarter

Hourly Weather History & Observations

Time (EDT) Temp. Dew Point Humidity Pressure Visibility Wind Dir Wind Speed Gust Speed Precip Events Conditions
12:15 AM 57.9 °F 36.3 °F 44% 29.92 in 10.0 mi Calm Calm - N/A   Clear
12:55 AM 55.4 °F 36.3 °F 49% 29.91 in 10.0 mi Calm Calm - N/A   Clear
1:15 AM 55.2 °F 35.4 °F 47% 29.91 in 10.0 mi Calm Calm - N/A   Clear
1:35 AM 56.3 °F 36.1 °F 47% 29.90 in 10.0 mi Calm Calm - N/A   Clear
1:55 AM 52.7 °F 35.6 °F 52% 29.89 in 10.0 mi Calm Calm - N/A   Clear
2:15 AM 53.8 °F 35.2 °F 50% 29.89 in 10.0 mi Calm Calm - N/A   Clear
2:35 AM 52.3 °F 35.8 °F 53% 29.89 in 10.0 mi Calm Calm - N/A   Clear
2:55 AM 52.2 °F 35.8 °F 54% 29.88 in 10.0 mi Calm Calm - N/A   Clear
3:15 AM 52.0 °F 35.4 °F 53% 29.88 in 10.0 mi Calm Calm - N/A   Clear
3:35 AM 50.5 °F 37.0 °F 60% 29.88 in 10.0 mi Calm Calm - N/A   Clear
3:55 AM 50.0 °F 37.4 °F 62% 29.87 in 10.0 mi Calm Calm - N/A   Scattered Clouds
4:15 AM 51.1 °F 36.0 °F 56% 29.86 in 10.0 mi Calm Calm - N/A   Scattered Clouds
4:35 AM 50.4 °F 35.8 °F 57% 29.86 in 10.0 mi Calm Calm - N/A   Clear
4:55 AM 51.4 °F 35.8 °F 55% 29.86 in 10.0 mi Calm Calm - N/A   Clear
5:15 AM 51.1 °F 36.0 °F 56% 29.84 in 10.0 mi Calm Calm - N/A   Clear
5:35 AM 50.9 °F 36.5 °F 58% 29.84 in 10.0 mi Calm Calm - N/A   Clear
6:15 AM 51.4 °F 37.2 °F 58% 29.83 in 10.0 mi Calm Calm - N/A   Scattered Clouds
6:35 AM 52.2 °F 38.3 °F 59% 29.84 in 10.0 mi Calm Calm - N/A   Mostly Cloudy
6:55 AM 52.0 °F 40.6 °F 65% 29.84 in 10.0 mi Calm Calm - N/A   Overcast
7:15 AM 51.8 °F 39.6 °F 63% 29.84 in 10.0 mi Calm Calm - N/A   Overcast
7:35 AM 53.6 °F 38.5 °F 57% 29.84 in 10.0 mi Calm Calm - N/A   Overcast
7:55 AM 53.1 °F 39.2 °F 59% 29.84 in 10.0 mi Calm Calm - N/A   Overcast
8:15 AM 53.8 °F 39.0 °F 57% 29.84 in 10.0 mi Calm Calm - N/A   Overcast
8:35 AM 54.0 °F 39.7 °F 59% 29.83 in 10.0 mi Calm Calm - N/A   Overcast
8:55 AM 55.0 °F 41.5 °F 60% 29.83 in 10.0 mi Calm Calm - N/A   Overcast
9:15 AM 56.5 °F 40.8 °F 56% 29.82 in 10.0 mi Calm Calm - N/A   Overcast
9:35 AM 56.8 °F 40.8 °F 55% 29.82 in 10.0 mi Calm Calm - N/A   Overcast
9:55 AM 57.6 °F 42.6 °F 57% 29.82 in 10.0 mi SW 3.5 mph - N/A   Overcast
10:15 AM 61.7 °F 41.4 °F 47% 29.81 in 10.0 mi WSW 5.8 mph - N/A   Overcast
10:35 AM 62.6 °F 41.4 °F 46% 29.81 in 10.0 mi West 4.6 mph - N/A   Mostly Cloudy
10:55 AM 63.1 °F 41.9 °F 46% 29.81 in 10.0 mi WSW 8.1 mph - N/A   Mostly Cloudy
11:15 AM 63.7 °F 43.0 °F 47% 29.81 in 10.0 mi West 8.1 mph - N/A   Mostly Cloudy
11:35 AM 64.4 °F 43.5 °F 47% 29.81 in 10.0 mi WSW 8.1 mph - N/A   Overcast
11:55 AM 63.3 °F 44.1 °F 49% 29.82 in 10.0 mi WNW 6.9 mph - N/A   Overcast
12:15 PM 62.1 °F 44.8 °F 53% 29.81 in 10.0 mi NW 8.1 mph - N/A   Overcast
12:35 PM 62.6 °F 45.0 °F 52% 29.81 in 10.0 mi West 9.2 mph - N/A   Overcast
12:55 PM 62.6 °F 45.9 °F 54% 29.80 in 10.0 mi West 6.9 mph - N/A   Overcast
1:15 PM 62.8 °F 46.0 °F 54% 29.80 in 10.0 mi West 11.5 mph - N/A   Overcast
1:35 PM 63.3 °F 46.4 °F 54% 29.79 in 10.0 mi WSW 13.8 mph 17.3 mph N/A   Overcast
1:55 PM 64.2 °F 45.7 °F 51% 29.78 in 10.0 mi West 6.9 mph 20.7 mph N/A   Overcast
2:15 PM 64.2 °F 45.3 °F 50% 29.78 in 10.0 mi West 10.4 mph 19.6 mph N/A   Overcast
2:35 PM 64.0 °F 45.0 °F 50% 29.78 in 10.0 mi West 9.2 mph 19.6 mph N/A   Overcast
2:55 PM 63.1 °F 45.3 °F 52% 29.77 in 10.0 mi West 6.9 mph - N/A   Overcast
3:15 PM 63.0 °F 46.0 °F 54% 29.77 in 10.0 mi WSW 9.2 mph - N/A   Overcast
3:35 PM 63.0 °F 46.2 °F 54% 29.76 in 10.0 mi West 6.9 mph - N/A   Overcast
3:55 PM 65.3 °F 46.4 °F 50% 29.74 in 10.0 mi WSW 11.5 mph 19.6 mph N/A   Scattered Clouds
4:15 PM 65.7 °F 45.7 °F 48% 29.73 in 10.0 mi West 8.1 mph 18.4 mph N/A   Scattered Clouds
4:35 PM 66.2 °F 46.2 °F 49% 29.73 in 10.0 mi SW 10.4 mph 18.4 mph N/A   Scattered Clouds
4:55 PM 65.5 °F 46.2 °F 50% 29.72 in 10.0 mi WSW 9.2 mph - N/A   Mostly Cloudy
5:15 PM 65.8 °F 46.2 °F 49% 29.72 in 10.0 mi WSW 8.1 mph - N/A   Overcast
5:35 PM 66.4 °F 45.7 °F 47% 29.72 in 10.0 mi WNW 5.8 mph - N/A   Scattered Clouds
5:55 PM 67.1 °F 42.1 °F 40% 29.72 in 10.0 mi West 10.4 mph 18.4 mph N/A   Scattered Clouds
6:15 PM 67.3 °F 41.9 °F 40% 29.72 in 10.0 mi West 11.5 mph - N/A   Clear
6:35 PM 67.1 °F 40.5 °F 38% 29.71 in 10.0 mi West 10.4 mph 16.1 mph N/A   Scattered Clouds
6:55 PM 66.4 °F 40.6 °F 39% 29.71 in 10.0 mi West 8.1 mph 16.1 mph N/A   Clear
7:15 PM 65.5 °F 41.4 °F 41% 29.71 in 10.0 mi West 6.9 mph - N/A   Clear
7:35 PM 65.1 °F 41.5 °F 42% 29.71 in 10.0 mi West 6.9 mph - N/A   Scattered Clouds
7:55 PM 64.9 °F 41.0 °F 42% 29.72 in 10.0 mi West 12.7 mph 24.2 mph N/A   Scattered Clouds
8:15 PM 64.4 °F 41.2 °F 43% 29.72 in 10.0 mi West 10.4 mph - N/A   Scattered Clouds
8:35 PM 63.5 °F 41.9 °F 45% 29.73 in 10.0 mi WNW 4.6 mph - N/A   Clear
8:55 PM 63.5 °F 41.9 °F 45% 29.73 in 10.0 mi West 9.2 mph - N/A   Scattered Clouds
9:15 PM 62.6 °F 41.9 °F 47% 29.74 in 10.0 mi NW 8.1 mph - N/A   Scattered Clouds
9:35 PM 61.9 °F 43.3 °F 51% 29.75 in 10.0 mi North 10.4 mph - N/A   Scattered Clouds
9:55 PM 61.2 °F 40.6 °F 47% 29.76 in 10.0 mi NW 10.4 mph - N/A   Mostly Cloudy
10:15 PM 59.7 °F 36.5 °F 42% 29.77 in 10.0 mi NNW 9.2 mph - N/A   Scattered Clouds
10:35 PM 59.0 °F 32.7 °F 37% 29.77 in 10.0 mi NW 9.2 mph - N/A   Clear
10:55 PM 57.6 °F 31.6 °F 37% 29.77 in 10.0 mi NNW 13.8 mph 17.3 mph N/A   Clear
11:15 PM 56.7 °F 30.6 °F 37% 29.79 in 10.0 mi NNW 13.8 mph 20.7 mph N/A   Clear
11:35 PM 55.6 °F 29.5 °F 37% 29.79 in 10.0 mi NW 12.7 mph 19.6 mph N/A   Clear
11:55 PM 54.9 °F 26.2 °F 33% 29.79 in 10.0 mi NW 11.5 mph 18.4 mph N/A   Clear